Startpagina
METAR-TAF:

METAR-TAF

Vliegvelden :

Meppen, Duitsland

Militair vliegvled

breedte: 52-43-24N, lengte: 007-19-35E, hoogte: 21 m

Actueel weer

Dit bericht is 1 uur en het 8 minuten geleden gemaakt, om 09:20 UTC
Wind 3 kt uit het zuidzuidwesten
Temperatuur 16°C
Vochtigheid 68%
Druk 1021 hPa
Zicht 10 km of meer
Weinig wolken op 6000 ft
Verspreide wolken op 27000 ft

METAR: ETWM 210920Z 20003KT 9999 FEW060 SCT270 16/10 Q1021 BLU+

Tijdstip: 12:28 (10:28 UTC)


TAF: ontbreekt

Waarnemingen en weersverwachtingen van meer dan 4000 vliegvelden (METAR en TAF).

De beschikbare stations zijn de gele en rode punten op de kaart.

Ga met uw muis naar het station om de naam te zien.

Klik dan om waarnemingen en weersverwachtingen te zien.

kaart wijzigen: klik op de groene knoppen met een zwart kruis om in te zoomen, op de groene knop met een streepje om uit te zoomen of op de groene pijlen voor aangrenzende kaarten.


METAR-TAF: